Regional Weather Roundup
Issued by NWS Bismarck, ND

Home | Current Version | Previous Version | Text Only | Print | Product List | Glossary On
Versions: 1 2 3 4 5 6 7 8 9 10 11 12 13 14 15 16 17 18 19 20 21 22 23 24 25 26 27 28 29 30 31 32 33 34 35 36 37 38 39 40 41 42 43 44 45 46 47 48 49 50
000
ASUS43 KBIS 311202
RWRBIS

NWR BROADCAST TEXT
NATIONAL WEATHER SERVICE BISMARCK ND
700 AM CDT FRI JUL 31 2015

NOTE: "FAIR" INDICATES FEW OR NO CLOUDS BELOW 12,000 FEET WITH NO
SIGNIFICANT WEATHER AND/OR OBSTRUCTIONS TO VISIBILITY.


CITY           SKY/WX    TMP DP  RH WIND       PRES   REMARKS
WILLISTON      CLEAR     55  51  86 CALM      30.16S
MINOT          CLEAR     59  50  72 W6        30.13S
MINOT AFB      NOT AVBL
BISMARCK       CLEAR     54  51  90 W3        30.18S
DICKINSON      CLEAR     55  48  77 SW7       30.18S
GARRISON         N/A     58  52  80 CALM      30.15S
HETTINGER ARPT CLEAR     48  44  86 CALM      30.22S
JAMESTOWN      CLEAR     58  51  78 W6        30.13R
HAZEN          FAIR      48  46  93 CALM      30.17F
OAKES            N/A     55  54  94 W6        30.14S
STANLEY        FAIR      55  52  88 W3        30.16F
$$

CITY           SKY/WX    TMP DP  RH WIND       PRES   REMARKS
GRAND FORKS    CLEAR     59  52  77 W9        30.04R
GRAND FORKS AF NOT AVBL
DEVILS LAKE    PTCLDY    61  48  63 W9        30.10R
FARGO          CLEAR     57  52  83 W10       30.08R
CAVALIER       FAIR      59  50  72 W7        30.04R
GRAFTON        FAIR      59  54  82 W12       30.04R
GWINNER        FAIR      57  52  82 W9        30.13S
LANGDON        FAIR      54  50  87 W9        30.08R
$$

CITY           SKY/WX    TMP DP  RH WIND       PRES   REMARKS
ABERDEEN       CLEAR     54  50  86 CALM      30.15S
MOBRIDGE       CLEAR     56  55  97 CALM      30.16R
BUFFALO          N/A     63  46  54 CALM      30.18R
RAPID CITY     CLEAR     58  48  69 NW8       30.22R
GLASGOW        CLEAR     57  48  72 E10       30.16S
SIDNEY         CLEAR     52  46  82 CALM      30.17S
WOLF POINT     CLEAR     50  47  89 SW5       30.17S
GLENDIVE       CLEAR     52  48  87 CALM      30.20R
MILES CITY     CLEAR     59  45  59 CALM      30.19S
BAKER          CLEAR     53  44  71 CALM      30.23R
$$

CITY           SKY/WX    TMP DP  RH WIND       PRES   REMARKS
BILLINGS       CLEAR     62  42  47 SW6       30.23F
GREAT FALLS    CLEAR     52  42  69 W7        30.19S
$$



USA.gov is the U.S. government's official web portal to all federal, state and local government web resources and services.